Location: Pardubice
(50.0330°N, 15.7830°E)
Time: 00:29:11
(UTC+01:00)

ISS - Pass Details

Date: 07 October 2020
Orbit: 417 x 420 km, 51.6° (Epoch: 30 October)

Event Time Altitude Azimuth Distance (km) Brightness Sun altitude
Rises 19:35:17 0° 281° (W) 2,368 2.1 -12.6°
Reaches altitude 10° 19:38:16 10° 252° (WSW) 1,499 0.1 -13.1°
Maximum altitude 19:39:52 13° 223° (SW) 1,335 -0.7 -13.4°
Drops below altitude 10° 19:41:27 10° 195° (SSW) 1,495 -0.9 -13.6°
Enters shadow 19:44:13 - 167° (SSE) 2,282 -0.2 -14.1°
